Weather History for Cape Girardeau, MO

Change the Weather History Date:

Monday, April 29, 2013

  Actual Average Record
Temperature  
Mean Temperature 59 °F 62 °F  
Max Temperature 73 °F 73 °F 90 °F (1987)
Min Temperature 45 °F 50 °F 31 °F (2008)
Degree Days  
Heating Degree Days 6 5  
Month to date heating degree days 305 259  
Since 1 July heating degree days 4266 4315  
Cooling Degree Days 0 2  
Month to date cooling degree days 24 24  
Year to date cooling degree days 24 28  
Growing Degree Days 8 (Base 50)    
Moisture  
Dew Point 52 °F    
Average Humidity 83    
Maximum Humidity 100    
Minimum Humidity 66    
Precipitation  
Precipitation 0.00 in 0.16 in 5.54 in (1983)
Month to date precipitation 3.65 4.19  
Year to date precipitation 12.82 15.47  
Sea Level Pressure  
Sea Level Pressure 29.95 in    
Wind  
Wind Speed 7 mph (SSE)    
Max Wind Speed 9 mph    
Max Gust Speed 12 mph    
Visibility 5 miles    
Events Fog    
T = Trace of Precipitation, MM = Missing Value Source: NWS Daily Summary

Daily Weather History Graph

Daily Weather History Graph

Search for Another Location

Airport:

Trip Planner

Search our weather history database for the weather conditions in past years. The results will help you decide how hot, cold, wet, or windy it might be!

Date:

Astronomy

Apr. 29, 2013 Rise Set
Actual Time 6:05 AM CDT 7:46 PM CDT
Civil Twilight 5:37 AM CDT 8:14 PM CDT
Nautical Twilight 5:04 AM CDT 8:47 PM CDT
Astronomical Twilight 4:28 AM CDT 9:23 PM CDT
Moon No Moon Rise 9:28 AM CDT (4/29)
Length of Visible Light 14h 36m
Length of Day
13h 40m
Waning Gibbous, 80% of the Moon is Illuminated
Apr 29
Waning Gibbous
May 2
Last Quarter
May 9
New
May 17
First Quarter
May 24
Full

Hourly Weather History & Observations

Time (CDT) Temp. Windchill Dew Point Humidity Pressure Visibility Wind Dir Wind Speed Gust Speed Precip Events Conditions
12:53 AM 51.1 °F - 50.0 °F 96% 29.95 in 10.0 mi SSE 3.5 mph - N/A   Clear
1:44 AM 48.2 °F - 48.2 °F 100% 29.94 in 1.2 mi Calm Calm - N/A   Clear
1:53 AM 48.9 °F - 48.0 °F 97% 29.94 in 0.8 mi SSE 3.5 mph - N/A   Clear
2:12 AM 46.4 °F - 46.4 °F 100% 29.94 in 0.2 mi Calm Calm - N/A Fog Fog
2:39 AM 46.4 °F 44.3 °F 46.4 °F 100% 29.94 in 1.0 mi SSE 4.6 mph - N/A   Clear
2:48 AM 46.4 °F 44.3 °F 44.6 °F 93% 29.94 in 0.5 mi SE 4.6 mph - N/A Fog Fog
2:53 AM 46.0 °F 43.1 °F 45.0 °F 96% 29.94 in 0.2 mi SSE 5.8 mph - N/A Fog Fog
3:00 AM 46.4 °F 42.9 °F 44.6 °F 93% 29.94 in 0.5 mi SSE 6.9 mph - N/A Fog Fog
3:13 AM 46.4 °F 44.3 °F 46.4 °F 100% 29.94 in 2.0 mi SE 4.6 mph - N/A   Clear
3:23 AM 46.4 °F 45.2 °F 46.4 °F 100% 29.94 in 0.8 mi ESE 3.5 mph - N/A   Clear
3:36 AM 46.4 °F 43.5 °F 46.4 °F 100% 29.94 in 0.2 mi SE 5.8 mph - N/A Fog Fog
3:41 AM 46.4 °F 44.3 °F 44.6 °F 93% 29.95 in 0.5 mi SE 4.6 mph - N/A Fog Fog
3:49 AM 46.4 °F 43.5 °F 44.6 °F 93% 29.94 in 0.2 mi SE 5.8 mph - N/A Fog Fog
3:53 AM 46.0 °F 43.1 °F 45.0 °F 96% 29.95 in 0.2 mi SE 5.8 mph - N/A Fog Fog
4:16 AM 44.6 °F 41.4 °F 44.6 °F 100% 29.95 in 0.5 mi SE 5.8 mph - N/A Fog Fog
4:23 AM 44.6 °F 42.2 °F 44.6 °F 100% 29.95 in 0.2 mi SE 4.6 mph - N/A Fog Fog
4:53 AM 46.0 °F 44.8 °F 45.0 °F 96% 29.95 in 0.2 mi SE 3.5 mph - N/A Fog Fog
5:42 AM 48.2 °F - 48.2 °F 100% 29.96 in 0.5 mi South 3.5 mph - N/A Fog Fog
5:53 AM 48.9 °F - 48.9 °F 100% 29.97 in 0.5 mi South 3.5 mph - N/A Fog Fog
6:00 AM 48.2 °F - 48.2 °F 100% 29.97 in 0.2 mi Calm Calm - N/A Fog Fog
6:53 AM 48.9 °F - 48.0 °F 97% 29.99 in 0.2 mi Calm Calm - N/A Fog Fog
7:41 AM 51.8 °F - 51.8 °F 100% 30.00 in 0.5 mi SSE 4.6 mph - N/A Fog Fog
7:53 AM 52.0 °F - 52.0 °F 100% 30.00 in 1.5 mi Calm Calm - N/A   Overcast
7:59 AM 51.8 °F - 51.8 °F 100% 30.00 in 3.0 mi SSE 3.5 mph - N/A   Mostly Cloudy
8:13 AM 53.6 °F - 53.6 °F 100% 30.00 in 7.0 mi Calm Calm - N/A   Scattered Clouds
8:53 AM 57.0 °F - 55.0 °F 93% 29.99 in 10.0 mi SSE 5.8 mph - N/A   Clear
9:53 AM 62.1 °F - 55.9 °F 80% 29.99 in 10.0 mi South 8.1 mph - N/A   Clear
10:53 AM 66.0 °F - 55.9 °F 70% 30.00 in 10.0 mi SSW 8.1 mph - N/A   Scattered Clouds
11:02 AM 66.2 °F - 57.2 °F 73% 30.01 in 10.0 mi South 11.5 mph - N/A   Mostly Cloudy
11:53 AM 66.9 °F - 57.0 °F 70% 29.99 in 10.0 mi South 11.5 mph - N/A   Mostly Cloudy
12:53 PM 68.0 °F - 57.9 °F 70% 29.97 in 10.0 mi SSW 13.8 mph 19.6 mph N/A   Mostly Cloudy
1:51 PM 69.8 °F - 59.0 °F 68% 29.95 in 10.0 mi SSW 13.8 mph - N/A   Scattered Clouds
1:53 PM 69.1 °F - 59.0 °F 70% 29.95 in 10.0 mi SSW 12.7 mph - N/A   Scattered Clouds
2:53 PM 71.1 °F - 60.1 °F 68% 29.92 in 10.0 mi South 9.2 mph - N/A   Partly Cloudy
3:53 PM 72.0 °F - 60.1 °F 66% 29.90 in 10.0 mi South 9.2 mph - N/A   Clear
4:53 PM 72.0 °F - 59.0 °F 64% 29.88 in 10.0 mi South 10.4 mph - N/A   Clear
5:53 PM 72.0 °F - 59.0 °F 64% 29.88 in 10.0 mi South 10.4 mph - N/A   Clear
6:53 PM 70.0 °F - 57.9 °F 65% 29.87 in 10.0 mi South 6.9 mph - N/A   Clear
7:53 PM 64.9 °F - 57.9 °F 78% 29.87 in 10.0 mi SW 4.6 mph - N/A   Clear
8:53 PM 60.1 °F - 57.9 °F 93% 29.89 in 10.0 mi Calm Calm - N/A   Clear
9:53 PM 57.9 °F - 55.0 °F 90% 29.90 in 10.0 mi SSE 4.6 mph - N/A   Clear
10:53 PM 60.1 °F - 57.0 °F 90% 29.89 in 10.0 mi SSE 6.9 mph - N/A   Clear
11:53 PM 60.1 °F - 55.9 °F 86% 29.89 in 10.0 mi South 5.8 mph - N/A   Clear